Location: Voorhees State Park
(40.6817°N, 74.8983°W)
Time: 13:01:47
(UTC-05:00)

Daily predictions for brighter satellites

Satellite Brightness Start Highest point End
(mag) Time Altitude Azimuth Time Altitude Azimuth Time Altitude Azimuth
BREEZE-M R/B 3.6 17:18:00 10° SW 17:21:44 71° SE 17:33:25 10° ENE
CSL-04 Rocket 3.8 17:23:31 10° SSE 17:29:05 89° WSW 17:34:39 10° NNW
Cosmos 1484 Rocket 3.0 17:26:30 10° S 17:30:19 74° WSW 17:34:06 10° NNW
Cosmos 1300 3.9 17:27:52 10° NNE 17:30:52 22° ENE 17:33:52 10° SE
NOSS 2-1 (C) 3.4 17:30:37 10° SW 17:34:16 73° NW 17:38:17 10° NNE
Meteor 2-21 4.4 17:28:27 10° N 17:34:32 68° E 17:40:32 10° SSE
NOSS 2-1 (D) 3.4 17:31:16 10° SW 17:34:55 70° NW 17:38:56 10° NNE
Cosmos 1943 Rocket 2.4 17:31:17 10° NNW 17:36:40 45° ENE 17:41:57 10° SE
Cosmos 1992 Rocket 4.0 17:33:15 10° S 17:38:26 72° ESE 17:43:37 10° NNE
SL-8 Rocket 4.3 17:35:03 10° N 17:40:56 43° ENE 17:46:48 10° SSE
Cosmos 2218 Rocket 4.5 17:36:05 10° N 17:41:44 36° ENE 17:47:20 10° SE
USA 161 4.2 17:42:33 10° NW 17:43:10 11° WNW 17:43:46 10° W
Cosmos 1315 Rocket 4.0 17:40:16 10° SE 17:43:17 21° E 17:46:19 10° NE
ALOS 2.7 17:41:19 10° SE 17:45:38 39° ENE 17:49:58 10° N
ERS-2 3.5 17:43:24 10° ESE 17:46:06 20° ENE 17:48:49 10° NNE
Cosmos 1346 Rocket 4.5 17:47:52 10° NE 17:49:47 13° ENE 17:50:29 13° E
IRS-1A Rocket 4.2 17:46:14 10° SSE 17:51:44 77° ENE 17:57:21 10° N
BREEZE-M DEB (TANK) 2.4 17:46:53 10° SW 17:53:22 82° SSE 17:55:33 16° ENE
Cosmos 2221 2.5 17:49:58 10° N 17:54:20 73° E 17:58:42 10° SSE
ATLAS 2AS CENTAUR R/B 3.0 17:47:25 10° NW 17:55:25 90° ENE 18:02:42 10° SSE
BREEZE M DEB (TANK) 4.1 17:51:35 10° WSW 17:55:59 83° NNW 18:12:16 13° ENE
Cosmos 1908 4.3 17:53:08 10° NNW 17:56:53 49° W 18:00:36 10° SSW
Cosmos 968 Rocket 3.5 17:52:46 10° N 17:57:51 56° ENE 18:02:52 10° SSE
FENGYUN 3A 3.7 17:54:02 10° SSE 17:59:14 54° ENE 18:04:28 10° N
Meteor 1-21 Rocket 4.4 17:53:24 10° S 17:59:17 89° E 18:05:15 10° N
CZ-4 R/B 4.4 17:56:02 10° SSE 18:00:09 85° ENE 18:04:18 10° NNW
Tiangong 1 0.9 17:58:45 10° W 18:01:11 48° N 18:02:20 24° ENE
Cosmos 1408 Rocket 4.3 17:59:21 10° SSE 18:03:07 30° E 18:06:52 10° NNE
NOSS 2-1 (E) 4.4 17:59:43 10° WSW 18:03:14 41° NW 18:07:12 10° NNE
COSMO-SKYMED 1 2.5 18:02:51 10° NNE 18:07:13 80° ESE 18:11:33 10° S
SL-24 R/B - RUBIN 2 4.5 18:05:36 10° NNW 18:09:34 28° NE 18:11:35 20° E
H-2A R/B 3.6 18:07:08 10° SE 18:10:23 28° ENE 18:13:40 10° NNE
MOS 1 4.2 18:08:34 10° SSE 18:14:12 79° ENE 18:19:52 10° NNW
Cosmos 1328 4.0 18:10:31 10° SSE 18:14:23 49° E 18:18:18 10° NNE
Cosmos 1400 Rocket 3.1 18:10:51 10° SSW 18:14:51 69° W 18:18:57 10° N
NOSS 3-4 (A) 4.1 18:11:08 10° NNW 18:17:46 43° NE 18:24:32 11° ESE
NOSS 3-4 (C) 4.2 18:11:14 10° NNW 18:17:52 43° NE 18:24:30 12° ESE
Cosmos 1726 3.3 18:17:06 10° NNW 18:20:36 44° W 18:24:05 10° SSW
Cosmos 1943 4.0 18:15:40 10° SW 18:21:07 50° WNW 18:26:36 10° NNE
MTI 4.0 18:18:15 10° N 18:21:27 70° WNW 18:24:38 10° SSW
Cosmos 2366 rocket 3.9 18:15:37 10° N 18:21:52 69° E 18:28:00 10° SSE
Meteor 2-8 Rocket 4.4 18:16:19 10° S 18:22:24 71° E 18:28:33 10° NNE
Cosmos 2058 4.3 18:20:26 10° SE 18:22:32 20° ESE 18:22:32 20° ESE
Cosmos 2151 4.4 18:22:42 10° SE 18:24:39 20° ESE 18:24:39 20° ESE
Cosmos 1076 Rocket 4.0 18:23:45 10° SSW 18:28:04 64° W 18:32:26 10° N
Cosmos 1743 Rocket 4.5 18:24:39 10° SSE 18:27:51 27° ESE 18:27:51 27° ESE
Thor Agena Rocket 4.2 18:30:23 27° ENE 18:32:03 33° E 18:36:42 10° SSE
Cosmos 44 3.1 18:30:01 10° SSW 18:34:10 53° ESE 18:35:33 36° ENE
EO 1 Del DPAF 3.4 18:32:15 10° N 18:36:05 74° WNW 18:39:53 10° SSW
Cosmos 1328 Rocket 3.8 18:32:40 10° N 18:36:52 44° ENE 18:41:01 10° SSE
Nadezhda 3 Rocket 4.3 18:31:56 10° SSE 18:37:49 44° E 18:43:47 10° NNE
Cosmos 1703 3.4 18:41:56 10° S 18:45:33 51° ESE 18:45:33 51° ESE
Cosmos 1766 Rocket 3.7 18:42:28 10° SSW 18:46:48 72° W 18:51:07 10° N
CZ-4 R/B 4.5 18:45:18 10° SW 18:48:11 18° W 18:51:07 10° NW
SPOT 3 Rocket 4.0 18:44:06 10° S 18:49:11 63° WSW 18:54:19 10° NNW
Cosmos 44 Rocket 3.1 18:50:31 10° SSW 18:55:09 70° ESE 18:55:59 56° ENE
OAO 3 Rocket 3.9 18:54:17 10° WSW 18:58:43 42° S 18:59:43 37° SSE
USA 81 4.0 18:56:02 10° S 19:01:12 60° E 19:02:38 44° NE
Cosmos 1626 2.9 19:00:54 10° SSW 19:04:30 51° W 19:05:54 32° NNW
GEOS 3 Rocket 3.5 19:06:07 35° SE 19:08:28 88° ENE 19:13:53 10° NW
Cosmos 1777 Rocket 4.0 19:05:18 10° NNW 19:10:33 78° WSW 19:15:48 10° SSE
Cosmos 1656 Rocket 4.0 19:12:01 10° NNW 19:17:26 64° WSW 19:22:53 10° S
ERS-2 4.3 19:16:29 10° SSW 19:19:35 26° W 19:22:44 10° NW
Cosmos 1943 Rocket 4.4 19:15:39 10° NW 19:20:04 24° WSW 19:24:27 10° SSW
Cosmos 2239 Rocket 4.3 19:19:32 10° N 19:32:40 - SSE 19:25:36 72° ENE
Cosmos 1346 Rocket 3.9 19:22:42 10° NNW 19:26:25 41° W 19:26:32 41° W
Cosmos 2098 Rocket 4.2 19:22:54 10° NNW 19:27:52 59° W 19:34:03 10° S
COSMOS 2406 3.4 19:38:25 10° SSW 19:43:50 70° W 19:43:50 70° W
